Home   Weather   Whyalla   Past weeks
Flag for Australia

Past Weather in Whyalla, South Australia, Australia — Yesterday and Last 2 Weeks

Now
66 °F

Mild.


Feels Like: 66 °F
Forecast: 87 / 59 °F
Wind: 3 mph from Northwest

Location: Whyalla Airport Aws

Current Time: Oct 22, 2019 at 10:24:47 pm

Latest Report: Oct 22, 2019 at 9:30 pm


Visibility: N/A

Pressure: 30.10 "Hg

Humidity: 45%

Dew Point: 44 °F

Location of WhyallaLocation

Past Weather in Whyalla — Graph

°F

Whyalla Temperature Yesterday

Maximum temperature yesterday: 76 °F (at 3:00 pm)
Minimum temperature yesterday: 46 °F (at 6:00 am)
Average temperature yesterday: 64 °F

High & Low Weather Summary for the Past Weeks

 TemperatureHumidityPressure
High85 °F (Oct 22, 5:30 pm)95% (Oct 10, 6:30 am)30.41 "Hg (Oct 10, 6:30 am)
Low43 °F (Oct 17, 6:30 am)14% (Oct 22, 5:30 pm)29.77 "Hg (Oct 12, 3:30 pm)
Average61 °F59%30.11 "Hg
* Reported Oct 7 9:00 pm — Oct 22 9:00 pm, Whyalla. Weather by CustomWeather, © 2019

Note: Actual official high and low records may vary slightly from our data, if they occured in-between our weather recording intervals... More about our weather records

Advertising

Whyalla Weather History for the Previous 24 Hours

Scroll right to see more
 ConditionsComfort  
Time TempWeatherWind HumidityBarometerVisibility
9:00 pm
Tue, Oct 22
70 °FMild.5 mph44%30.09 "HgN/A
6:30 pm79 °FPleasantly warm.10 mph28%30.06 "HgN/A
6:00 pm85 °FPleasantly warm.8 mph15%30.06 "HgN/A
5:30 pm85 °FPleasantly warm.10 mph14%30.06 "HgN/A
3:30 pm85 °FPleasantly warm.15 mph15%30.09 "HgN/A
3:00 pm85 °FPleasantly warm.15 mph15%30.10 "HgN/A
12:30 pm82 °FPleasantly warm.9 mph25%30.17 "HgN/A
12:00 pm77 °FMild.8 mph39%30.19 "HgN/A
9:30 am71 °FMild.1 mph40%30.21 "HgN/A
9:00 am67 °FScattered clouds.3 mph45%30.21 "HgN/A
8:30 am66 °FMild.No wind50%30.21 "HgN/A
6:30 am50 °FCool.6 mph60%30.18 "HgN/A
6:00 am50 °FPassing clouds.5 mph60%30.18 "HgN/A
3:30 am52 °FCool.6 mph58%30.18 "HgN/A
3:00 am51 °FOvercast.5 mph58%30.19 "HgN/A
2:30 am52 °FCool.6 mph62%30.19 "HgN/A
12:30 am53 °FCool.5 mph51%30.22 "HgN/A
12:00 am54 °FCool.3 mph50%30.23 "HgN/A
Weather by CustomWeather, © 2019

See weather overview